Have a Safe July 4th! 

Flight Track Log - Related Links

Times and Time Zones

All times are in EDT time to prevent confusion due to time zone crossing. See the N650LR flight status page for this flight to view local times or setup timezone preferences in your user account.

Time Position Orientation Groundspeed Altitude Reporting Facility
EDT Latitude Longitude Course Direction KTS MPH feet Rate Location/Type
Thu 07:09:44 PM 39.6633 -86.3981 319° Northwest 320 368 7,000  Level Chicago Center
Thu 07:10:16 PM 39.6831 -86.4206 319° Northwest 261 300 8,700 3,447 Climbing Indianapolis Center
Thu 07:11:18 PM 39.7592 -86.4333 353° North 272 313 12,400 2,032 Climbing Indianapolis Center
Thu 07:12:20 PM 39.8344 -86.4514 350° North 273 314 12,900 871 Climbing Indianapolis Center
Thu 07:13:22 PM 39.9214 -86.4661 353° North 264 304 14,200 2,081 Climbing Indianapolis Center
Thu 07:14:24 PM 40.0039 -86.4831 351° North 289 333 17,200 2,903 Climbing Indianapolis Center
Thu 07:15:26 PM 40.0739 -86.5417 327° Northwest 300 345 20,200 2,806 Climbing Indianapolis Center
Thu 07:16:28 PM 40.1403 -86.6067 323° Northwest 300 345 23,000 2,478 Climbing Indianapolis Center
Thu 07:16:58 PM 40.1817 -86.6444 325° Northwest 302 348 24,000 652 Climbing Chicago Center
Thu 07:18:00 PM 40.2519 -86.7103 324° Northwest 312 359 24,000  Level Chicago Center
Thu 07:19:02 PM 40.3169 -86.7717 324° Northwest 294 338 24,000  Level Chicago Center
Thu 07:20:05 PM 40.3789 -86.8303 324° Northwest 280 322 24,000  Level Chicago Center
Thu 07:21:07 PM 40.4422 -86.8889 325° Northwest 280 322 24,000  Level Chicago Center
Thu 07:22:09 PM 40.5044 -86.9494 324° Northwest 280 322 24,000  Level Chicago Center
Thu 07:23:11 PM 40.5794 -87.0197 325° Northwest 278 320 24,000  Level Chicago Center
Thu 07:24:13 PM 40.6411 -87.0786 324° Northwest 276 318 24,000  Level Chicago Center
Thu 07:25:15 PM 40.7044 -87.1381 325° Northwest 276 318 24,000  Level Chicago Center
Thu 07:26:17 PM 40.7656 -87.1983 323° Northwest 275 316 24,000  Level Chicago Center
Thu 07:27:19 PM 40.8269 -87.2558 325° Northwest 273 314 24,000  Level Chicago Center
Thu 07:28:21 PM 40.8997 -87.3283 323° Northwest 274 315 24,000  Level Chicago Center
Thu 07:29:24 PM 40.9622 -87.3875 324° Northwest 277 319 24,000  Level Chicago Center
Thu 07:30:26 PM 41.0233 -87.4464 324° Northwest 275 316 24,000  Level Chicago Center
Thu 07:31:28 PM 41.0856 -87.5072 324° Northwest 279 321 24,000  Level Chicago Center
Thu 07:32:30 PM 41.1483 -87.5681 324° Northwest 280 322 24,000  Level Chicago Center
Thu 07:33:32 PM 41.2225 -87.6403 324° Northwest 278 320 24,000  Level Chicago Center
Thu 07:34:34 PM 41.2850 -87.7003 324° Northwest 279 321 24,000  Level Chicago Center
Thu 07:35:37 PM 41.3469 -87.7606 324° Northwest 279 321 24,000 -242 Level Chicago Center
Thu 07:36:38 PM 41.4089 -87.8217 324° Northwest 281 323 23,500 -927 Descending Chicago Center
Thu 07:37:40 PM 41.4881 -87.8994 324° Northwest 296 341 22,100 -1,210 Descending Chicago Center
Thu 07:38:42 PM 41.5558 -87.9658 324° Northwest 308 354 21,000 -1,008 Descending Chicago Center
Thu 07:39:45 PM 41.6233 -88.0333 323° Northwest 309 356 20,000 -480 Descending Chicago Center
Thu 07:40:47 PM 41.6878 -88.0975 323° Northwest 298 343 20,000  Level Chicago Center
Thu 07:41:49 PM 41.7597 -88.1692 323° Northwest 276 318 20,000 -48 Level Chicago Center
Thu 07:42:51 PM 41.8181 -88.2275 323° Northwest 267 307 19,900 -581 Descending Chicago Center
Thu 07:43:53 PM 41.8806 -88.2900 323° Northwest 276 318 18,800 -1,113 Descending Chicago Center
Thu 07:44:55 PM 41.9475 -88.3564 324° Northwest 297 342 17,600 -1,306 Descending Chicago Center
Thu 07:45:57 PM 42.0122 -88.4214 323° Northwest 295 339 16,100 -1,887 Descending Chicago Center
Thu 07:46:59 PM 42.0906 -88.4994 324° Northwest 293 337 13,700 -2,226 Descending Chicago Center
Thu 07:48:01 PM 42.1536 -88.5631 323° Northwest 289 333 11,500 -1,694 Descending Chicago Center
Thu 07:49:03 PM 42.2111 -88.6219 323° Northwest 267 307 10,200 -968 Descending Chicago Center
Thu 07:50:05 PM 42.2608 -88.6744 322° Northwest 234 269 9,500 -912 Descending Chicago Center
Thu 07:51:08 PM 42.3150 -88.7261 325° Northwest 238 274 8,300 -1,152 Descending Chicago Center
Thu 07:52:10 PM 42.3728 -88.7886 321° Northwest 248 285 7,100 -1,210 Descending Chicago Center
Thu 07:53:12 PM 42.4383 -88.8544 323° Northwest 252 290 5,800 -1,113 Descending Chicago Center
Thu 07:54:14 PM 42.4978 -88.9053 328° Northwest 252 290 4,800 -1,258 Descending Chicago Center
Thu 07:55:16 PM 42.5556 -88.9542 328° Northwest 248 285 3,200 -1,500 Descending Chicago Center
Thu 07:56:18 PM 42.5922 -89.0064 314° West 213 245 1,700 -871 Descending Chicago Center
Thu 07:57:20 PM 42.6228 -89.0533 312° West 194 223 1,400 -290 Descending Chicago Center
Thu 07:59:00 PM 42.6167 -89.0333 90° East  Level FlightAware Approximate

Login

Don't have an account? Register now (free) for customized features, flight alerts, and more!